Location: Home
(42.5358°N, 72.7383°W)
Time: 18:48:19
(UTC-05:00)

Tiros 1 - Pass Details

Date: 06 December 2021
Orbit: 629 x 664 km, 48.4° (Epoch: 26 January)

Event Time Altitude Azimuth Distance (km) Brightness Sun altitude
Rises 17:47:23 0° 243° (WSW) 2,909 12.2 -16.0°
Reaches altitude 10° 17:49:41 10° 243° (WSW) 2,007 11.0 -16.4°
Maximum altitude 17:54:19 87° 334° (NNW) 640 7.0 -17.2°
Enters shadow 17:56:21 34° 62° (ENE) 1,057 7.7 -17.6°
